Theta_e
335 337 337 337 339 343 345 342 345 351 350 349 349 350 353 353 352 355 352 345 344 345 345 344 343 345 345 343 348 348 345 348 350 347 347 347 348 353 354 353 354 353
332 333 335 337 337 339 341 342 344 348 351 353 351 350 352 353 352 354 353 348 343 344 346 344 342 344 345 343 345 346 344 347 350 347 347 348 349 353 354 355 354 352
332 332 333 336 337 337 339 343 346 347 351 354 353 352 353 353 352 350 351 348 345 346 346 344 344 344 346 345 344 345 344 345 347 347 347 348 349 353 354 353 354 351
334 334 332 336 340 338 338 345 348 347 350 352 352 354 354 353 352 349 347 346 347 350 348 345 345 345 346 345 344 346 345 344 346 346 347 346 346 350 353 352 353 353
335 336 333 337 344 344 341 346 348 346 348 351 351 353 353 353 353 351 346 342 344 349 349 346 344 344 345 344 345 346 346 345 346 346 345 345 345 346 349 351 351 352
335 337 336 337 345 348 345 346 349 347 347 349 350 352 352 352 354 354 348 341 340 344 347 346 342 343 344 343 344 345 346 348 349 347 345 345 346 346 347 349 350 350
337 336 337 339 346 350 348 347 348 348 348 349 349 350 351 350 353 355 351 345 341 341 345 348 344 341 343 342 342 342 346 351 352 350 348 346 345 346 346 349 349 347
347 341 337 342 348 350 350 349 348 347 348 349 349 348 349 349 350 353 354 351 349 345 346 349 347 342 341 344 343 340 342 348 349 348 349 347 345 345 345 348 349 346
355 351 342 343 349 351 349 349 349 347 347 348 348 347 348 349 349 351 353 353 354 352 348 349 349 345 341 344 346 342 338 343 349 349 347 345 345 344 344 345 346 346
355 356 351 349 350 350 349 349 349 348 348 347 347 347 347 347 347 349 351 349 350 354 351 348 350 348 342 341 344 345 341 342 350 353 351 348 345 344 345 346 346 346
351 353 354 353 352 350 349 349 349 349 349 348 346 346 346 346 346 347 350 346 344 349 351 347 347 347 344 339 341 344 343 340 345 349 352 353 352 350 350 350 351 350
347 349 352 354 353 351 348 348 348 347 349 348 347 346 345 345 345 345 348 347 343 343 345 342 341 342 342 340 341 344 344 341 342 344 345 347 349 350 348 347 348 348
347 348 351 351 351 351 349 347 346 345 346 347 347 346 345 344 346 345 345 346 344 343 343 341 337 336 337 336 339 346 350 348 346 346 345 342 341 342 341 342 344 343
350 349 351 351 350 350 349 347 347 345 344 345 346 346 345 343 344 345 345 345 345 344 344 343 340 336 335 334 333 338 347 351 350 350 349 346 343 341 341 344 347 347
352 352 352 352 351 351 350 348 347 346 344 343 343 345 345 344 342 343 345 346 346 345 345 346 345 341 336 332 331 330 334 342 348 349 350 350 347 346 344 345 348 348
352 352 352 353 352 352 352 350 347 345 345 344 343 343 344 344 343 341 343 345 346 346 345 345 346 344 338 331 329 329 327 331 337 342 346 347 347 348 347 346 346 346
353 352 353 352 352 351 352 352 351 349 346 344 344 344 344 345 344 342 342 342 345 347 347 347 346 345 342 336 330 329 328 328 329 333 340 343 344 346 347 346 346 346
352 352 352 352 353 351 349 351 353 352 349 347 346 345 345 345 345 344 342 341 342 344 347 348 348 346 345 342 337 333 331 330 329 330 336 340 341 343 345 345 343 342
352 352 352 352 354 353 350 349 350 349 349 349 349 348 347 346 346 346 345 343 341 342 343 345 347 348 346 344 341 339 336 334 332 331 333 337 339 340 342 343 342 340
351 351 352 352 353 353 351 350 348 347 347 348 348 349 349 349 349 348 348 346 343 343 343 343 345 347 347 345 343 341 340 338 336 334 333 335 339 341 342 342 342 341
350 351 351 351 352 351 351 351 350 349 350 350 348 348 349 350 351 351 351 351 349 347 345 344 345 346 346 345 344 343 342 340 339 338 336 334 335 339 342 342 343 343
351 350 351 351 351 351 351 352 352 351 352 353 352 352 351 351 351 351 353 354 354 353 351 349 348 348 347 346 346 345 344 343 342 341 341 339 337 335 336 338 340 342
351 351 352 352 352 352 352 352 353 353 353 354 353 353 353 352 350 350 352 353 353 354 355 355 354 352 351 349 348 347 346 345 345 344 344 344 343 340 337 335 335 336
348 349 351 352 352 352 352 353 353 354 354 354 352 352 352 351 350 350 351 352 351 351 353 355 356 356 355 354 352 351 349 348 347 347 347 347 348 347 345 343 340 337
345 347 348 351 352 352 353 354 354 354 354 353 352 352 352 352 351 350 350 351 350 349 349 350 353 357 358 356 355 353 352 351 350 349 349 349 349 350 349 350 349 347
338 343 345 347 348 350 352 353 354 354 354 354 353 353 354 354 354 352 351 350 350 349 349 349 350 355 357 358 357 356 354 353 352 352 351 351 351 351 350 351 351 351
Wind_Speed
24 23 21 20 19 17 17 16 16 15 14 13 14 14 14 12 12 13 12 10 10 10 9 8 8 9 8 8 9 9 8 8 8 6 6 5 7 6 4 5 5 7
25 24 23 22 20 19 18 17 16 16 15 14 13 13 14 14 14 15 13 11 11 10 10 9 8 9 9 8 9 9 8 9 9 8 6 6 6 7 5 6 6 6
25 25 25 24 23 21 20 18 16 16 16 16 16 14 13 14 14 15 14 12 11 11 11 11 10 9 9 9 9 8 8 9 8 7 7 6 7 8 7 5 6 6
25 25 25 24 23 22 21 20 18 17 16 16 17 15 14 14 14 15 15 13 13 13 12 12 11 10 9 9 9 8 8 8 7 6 6 6 7 8 7 6 6 7
25 25 25 24 23 23 22 21 20 20 19 16 16 16 16 16 16 16 16 15 15 15 14 13 12 12 11 11 10 9 8 8 8 7 6 6 6 7 9 9 8 8
25 25 25 25 24 23 23 23 22 21 20 18 17 17 17 18 17 16 16 16 16 16 15 14 13 13 13 12 11 10 9 9 8 8 7 7 7 7 8 9 9 7
25 25 25 25 25 25 24 24 24 23 21 20 20 19 18 19 19 17 16 16 17 16 16 15 14 14 14 13 12 12 11 10 10 10 8 8 9 9 8 9 8 7
24 24 25 26 26 26 26 25 25 25 23 22 22 21 20 19 20 19 17 17 17 17 17 17 16 15 15 14 14 13 13 13 12 10 10 10 10 10 10 10 9 9
24 25 26 26 26 26 27 26 26 26 26 24 23 22 22 21 20 20 20 20 18 18 18 19 18 17 16 16 15 14 14 14 13 11 10 11 11 11 11 11 11 11
23 25 27 27 27 27 27 27 26 26 27 27 25 23 23 24 22 20 21 22 21 20 20 20 20 19 18 17 17 16 15 15 15 14 13 12 12 11 11 11 11 12
26 26 27 29 29 28 28 28 27 26 26 27 26 25 23 24 24 23 22 23 23 23 23 23 22 22 20 18 18 18 17 16 17 18 17 15 13 13 13 12 12 13
31 29 28 30 30 29 28 29 28 27 27 27 26 25 24 24 25 26 25 24 23 23 24 24 23 23 21 19 18 18 18 17 16 18 18 18 17 16 15 15 15 15
33 32 30 30 31 30 29 28 29 27 26 27 27 26 25 24 24 26 26 26 25 24 24 24 23 23 22 21 20 18 17 17 17 17 17 18 18 17 17 16 15 16
32 33 32 31 30 31 31 28 28 28 28 27 26 26 26 25 24 24 25 26 26 26 25 24 23 24 23 23 22 21 20 19 18 18 18 18 18 17 17 16 16 16
30 32 32 32 29 28 31 31 29 27 27 27 27 26 25 25 25 24 24 25 26 26 26 26 25 25 25 25 24 23 23 23 22 21 20 20 19 18 17 17 17 18
28 32 32 32 30 25 24 28 30 28 25 26 26 25 24 25 25 24 24 24 25 26 26 26 26 26 27 27 26 25 25 24 25 24 24 23 22 21 20 19 19 19
23 28 29 29 29 28 21 17 21 25 24 24 25 24 23 24 25 25 25 24 24 25 26 26 27 27 27 28 27 26 26 25 26 26 25 25 25 24 23 23 22 20
19 22 24 22 22 24 21 17 18 19 20 19 21 23 23 23 23 25 26 26 24 24 26 26 26 26 27 28 28 27 26 25 26 26 27 27 27 26 26 26 26 24
16 18 21 20 17 18 21 21 20 21 21 19 19 21 23 25 25 24 26 28 27 26 25 26 27 26 26 28 29 29 27 26 26 26 27 28 28 28 28 28 28 27
14 16 19 22 20 19 19 19 20 23 26 26 25 26 26 27 28 27 27 29 30 29 27 27 27 27 27 29 30 31 30 29 28 28 28 28 28 28 28 28 28 28
16 16 18 20 21 21 20 19 19 21 24 27 29 29 29 30 30 28 27 29 31 32 32 30 28 27 28 29 30 31 32 31 31 30 30 30 30 29 29 29 28 28
17 18 16 16 17 18 18 18 18 20 23 24 26 27 27 29 30 29 28 28 29 30 32 34 32 30 29 29 29 30 31 32 33 33 32 32 32 32 32 32 32 31
14 16 16 15 15 16 16 16 16 19 21 23 24 25 25 26 28 29 30 29 29 29 29 31 33 33 33 32 31 31 31 32 33 33 34 34 34 34 34 35 35 36
10 13 13 14 15 16 15 14 14 17 20 22 24 25 24 24 26 29 31 31 31 31 30 30 31 32 34 34 35 35 35 35 35 34 34 35 35 35 35 35 36 37
8 10 11 12 14 14 14 13 13 15 17 20 23 24 24 23 25 29 31 31 30 29 29 31 32 32 33 34 35 36 38 39 38 38 37 38 38 38 37 36 36 36
7 8 8 9 11 12 13 13 13 14 15 17 20 22 23 22 23 26 28 28 28 27 27 29 31 32 33 35 36 37 38 39 40 41 41 41 40 39 38 37 37 36
Wind_Direction
202 201 197 200 204 199 198 198 196 196 189 187 189 182 183 181 172 185 195 180 175 178 179 181 171 169 177 173 168 171 175 172 168 161 151 166 175 163 169 189 186 184
205 204 201 201 203 203 202 200 202 200 190 191 198 190 186 185 180 188 194 186 182 181 179 183 182 175 175 178 175 171 173 173 170 163 157 170 176 170 178 185 190 197
207 208 206 204 203 205 203 201 204 204 196 195 198 192 193 194 189 190 194 190 184 184 185 185 186 185 177 180 184 178 168 169 173 167 164 174 175 176 180 181 193 197
207 210 211 207 205 206 203 200 203 204 202 205 200 191 193 199 197 195 195 193 186 184 190 191 188 189 188 185 186 186 173 169 176 179 181 184 179 183 185 184 196 193
208 210 212 209 205 206 203 199 203 204 201 208 208 196 192 197 202 203 198 194 192 190 192 197 193 191 196 195 189 189 182 177 182 188 194 189 179 187 188 185 193 195
212 211 213 211 206 207 205 200 203 205 201 203 207 203 199 198 199 205 205 198 196 197 197 200 200 196 199 200 196 196 191 188 193 195 201 198 185 192 197 191 197 202
215 213 214 212 207 207 208 203 202 204 202 201 203 204 205 204 200 202 209 208 201 200 200 201 205 202 202 205 201 200 198 199 207 207 207 209 196 195 202 198 199 202
219 216 215 212 209 209 209 207 205 203 202 202 203 204 205 207 207 202 205 210 205 204 203 201 207 209 204 206 207 203 200 203 213 214 207 209 204 200 203 203 205 208
218 220 218 214 211 211 211 210 210 207 203 202 202 204 204 206 211 208 204 206 204 207 209 203 208 216 209 206 209 210 207 202 209 223 223 217 212 210 210 208 210 213
215 219 220 216 212 213 213 211 212 210 206 204 201 203 206 205 208 211 212 211 204 206 215 208 206 218 217 210 209 214 216 205 200 213 228 229 223 221 220 220 222 222
220 221 222 219 214 213 214 213 211 211 210 209 204 203 208 209 206 208 215 222 214 207 215 215 210 216 221 217 212 214 221 217 206 207 214 220 224 224 223 223 227 231
223 223 223 222 217 214 215 214 212 212 210 212 209 204 207 211 211 209 211 221 223 216 217 221 219 220 223 223 219 218 225 227 221 217 218 220 223 226 227 225 227 231
222 222 222 225 222 217 216 215 213 213 211 212 212 208 207 210 213 214 213 216 223 223 221 224 226 226 227 229 224 218 222 230 230 228 228 231 231 233 235 235 235 238
220 220 226 235 231 222 220 218 214 215 214 215 216 212 210 211 212 216 216 216 220 223 222 223 228 230 229 232 231 222 217 224 230 230 230 235 237 237 237 235 237 242
221 221 238 255 252 234 224 221 218 217 215 216 219 217 215 214 214 217 219 218 219 223 224 222 225 231 232 233 235 232 224 221 224 227 227 229 234 236 236 234 233 235
226 226 242 261 266 257 239 224 220 221 218 217 219 220 219 218 217 217 221 222 222 224 227 226 224 228 235 238 238 238 236 230 227 228 228 228 229 230 231 232 233 234
233 231 239 252 260 265 262 245 232 227 222 222 222 221 220 222 222 221 221 223 224 224 226 229 227 226 231 239 241 240 240 238 234 231 231 232 232 229 227 228 230 232
243 239 239 245 255 256 252 258 263 245 228 225 225 224 224 223 224 224 222 223 226 226 225 228 230 228 229 235 242 244 243 242 240 236 232 233 235 233 230 230 231 230
246 242 239 242 253 250 240 245 252 244 236 233 225 223 226 227 228 229 226 224 224 227 230 232 233 232 229 232 238 244 245 244 242 240 236 233 235 237 236 235 236 236
246 244 241 242 247 249 245 245 239 231 231 231 226 222 221 222 225 230 233 232 228 226 229 231 235 237 235 234 237 241 244 244 243 242 239 236 235 237 239 240 241 242
251 249 245 245 249 252 249 249 245 234 229 228 230 232 229 224 222 223 229 236 236 234 231 230 232 237 240 242 242 243 244 245 245 244 242 239 236 234 236 239 242 244
252 253 251 248 253 258 253 248 244 239 234 232 233 236 237 235 232 227 227 232 236 238 238 237 235 235 237 242 246 247 246 247 247 247 246 245 242 237 235 236 238 241
259 254 250 247 251 257 256 250 244 239 235 235 238 240 240 240 241 240 237 236 236 237 240 242 242 240 238 238 241 245 247 248 248 248 248 249 248 245 241 239 238 239
283 263 250 243 246 254 257 255 248 241 234 229 233 240 242 241 242 243 243 241 240 241 242 244 245 245 243 241 239 241 243 245 246 247 247 249 250 250 250 248 246 244
309 285 265 248 246 249 253 255 251 247 243 236 232 235 239 240 240 239 241 243 245 246 247 247 246 246 245 245 242 240 241 243 245 246 247 248 250 252 254 255 254 252
330 305 283 264 258 255 252 255 257 253 250 247 242 239 237 238 239 239 241 244 248 249 250 250 248 245 245 247 246 243 242 242 243 244 246 248 250 252 254 257 258 258